Regional Weather Roundup
Issued by NWS Mt. Holly, NJ

Home | Current Version | Previous Version | Text Only | Print | Product List | Glossary On
Versions: 1 2 3 4 5 6 7 8 9 10 11 12 13 14 15 16 17 18 19 20 21 22 23 24 25 26 27 28 29 30 31 32 33 34 35 36 37 38 39 40 41 42 43 44
000
ASUS41 KPHI 251710
RWRPHI

REGIONAL WEATHER ROUNDUP
NATIONAL WEATHER SERVICE MOUNT HOLLY NJ
1200 PM EST THU DEC 25 2014

NOTE:  "FAIR" INDICATES FEW OR NO CLOUDS BELOW 12,000 FEET WITH NO
SIGNIFICANT WEATHER AND/OR OBSTRUCTIONS TO VISIBILITY.

 * = STATION DOES NOT REPORT PRECIPITATION (E.G. RAIN, SNOW, ETC.)
        OR FOG.

NJZ015>026-251800-
SOUTHERN NEW JERSEY

CITY           SKY/WX    TMP DP  RH WIND       PRES   REMARKS
POMONA         SUNNY     52  33  48 W26G35    29.84R
RIO GRANDE*    MOSUNNY   50  34  53 W13G21    29.86S
MILLVILLE      MOSUNNY   53  32  44 W16G30    29.88R
WRIGHTSTOWN    PTSUNNY   51  31  46 W15G24    29.81R
MOUNT HOLLY      N/A     51  31  46 W13G20    29.85R
TRENTON        MOSUNNY   51  29  42 W20G32    29.82R

$$
NJZ001>014-251800-
NORTHERN NEW JERSEY

CITY           SKY/WX    TMP DP  RH WIND       PRES   REMARKS
SUSSEX         CLOUDY    49  29  46 W14G25    29.77R
ANDOVER*       NOT AVBL
MORRISTOWN     PTSUNNY   54  32  43 NW23G32   29.78S
NEWARK         PTSUNNY   53  30  41 W21G33    29.77S
TETERBORO      MOSUNNY   50  32  50 W23G30    29.75S
CALDWELL       CLOUDY    51  27  39 NW15G25   29.77S
SOMERVILLE     MOSUNNY   50  30  46 VRB7G23   29.78S
ALLAIRE*       MOSUNNY   52  30  43 W21G31    29.80R
TOMS RIVER*    MOSUNNY   52  32  46 W24G39    29.82R

$$
PAZ043-044-047-054-055-060>062-066>071-251800-
EASTERN PENNSYLVANIA

CITY           SKY/WX    TMP DP  RH WIND       PRES   REMARKS
PHILADELPHIA   PTSUNNY   52  31  44 W25G31    29.87R
NORTH PHILA    PTSUNNY   52  29  41 W20G33    29.86R
BLUE BELL      PTSUNNY   52  32  46 W14G22    29.84R
DOYLESTOWN     PTSUNNY   48  32  53 W16G31    29.82R
POTTSTOWN      CLOUDY    48  31  51 W16G24    29.85S
LANCASTER      PTSUNNY   49  33  54 W15G24    29.86
COATESVILLE    CLOUDY    48  34  57 W17G28    29.87S
READING        PTSUNNY   49  32  52 W20G29    29.84R
ALLENTOWN      PTSUNNY   50  31  48 W16G30    29.82R
MOUNT POCONO   PTSUNNY   41  29  62 W23G35    29.75R
HAZLETON       PTSUNNY   43  32  65 W17G28    29.83R
WILKES BARRE   CLOUDY    45  32  60 W15G24    29.79R

$$
DEZALL-MDZ008-012-015-019-020-251800-
DELAWARE AND EASTERN MARYLAND

CITY           SKY/WX    TMP DP  RH WIND       PRES   REMARKS
WILMINGTON     PTSUNNY   53  30  41 W21G28    29.89R
DOVER          MOSUNNY   52  30  41 W22G32    29.88R
GEORGETOWN     MOSUNNY   54  30  40 NW18G38   29.91R
EASTON         MOSUNNY   55  36  47 NW15G25   29.97R
PATUXENT       CLOUDY    53  31  42 NW20G31   29.94R
OCEAN CITY     CLOUDY    53  33  46 NW18G26   29.89F
WALLOPS ISLAND PTSUNNY   53  38  56 NW14G22   29.93R
CAMBRIDGE      SUNNY     55  32  41 NW13G25   29.93R
SALISBURY      MOSUNNY   56  30  37 NW25G36   29.91S

$$
PAZ001-021-NYZ056-072-MDZ011-DCZ001-251800-
OTHER NEARBY LOCATIONS

CITY           SKY/WX    TMP DP  RH WIND       PRES   REMARKS
HARRISBURG     CLOUDY    48  33  56 W14       29.88R
STATE COLLEGE  CLOUDY    41  32  70 W17       29.89R
WILLIAMSPORT   CLOUDY    45  32  60 W13       29.84R
BINGHAMTON     LGT RAIN  39  31  72 W17G25    29.73R WCI  30
NEW YORK CITY  MOSUNNY   52  28  39 W15G26    29.78S
BALTIMORE      PTSUNNY   52  31  44 W15G23    29.92R
WASHINGTON DC  PTSUNNY   54  29  38 W15G25    29.96R

$$


USA.gov is the U.S. government's official web portal to all federal, state and local government web resources and services.